EW3205 Gothenburg SE current weather conditions

sailwx.info

Wind from 286

Air temperature 22.2° C
Dewpoint 18.2° C

Last reported at 2020-Aug-11 18:46 UTC.
Time now 2020-Aug-11 19:18 UTC

Location: N 57°44' E 011°47'.
View on Google Maps.

See reports from other nearby stations

  
Tides and Currents Weather Stations Pressure Air Temp Water Temp Dewpoint Dewpoint Depression Visibility Wind Speed Wind Dir Waves Ship Positions
date/time (UTC)wind fromknots sea level pressurealtimeterstation pressurevisibilityair tempwater tempwave heightnotes
2020-Aug-11 18:46 286 22.2
2020-Aug-11 18:32 283 22.8
2020-Aug-11 18:16 280 22.8
2020-Aug-11 18:01 280 23.3
2020-Aug-11 17:47 280 23.3
2020-Aug-11 17:31 280 23.3
2020-Aug-11 17:17 280 23.3
2020-Aug-11 17:01 280 23.3
2020-Aug-11 16:46 286 23.9
2020-Aug-11 16:32 273 24.4
2020-Aug-11 16:16 292 25.0
2020-Aug-11 16:01 281 25.0
2020-Aug-11 15:47 273 25.6
2020-Aug-11 15:31 288 25.6
2020-Aug-11 15:16 301 25.0
2020-Aug-11 15:01 238 25.0
2020-Aug-11 14:46 255 25.6
2020-Aug-11 14:31 282 26.1
2020-Aug-11 14:16 268 26.7
2020-Aug-11 14:01 273 27.2
2020-Aug-11 13:46 326 26.7
2020-Aug-11 13:32 280 26.1
2020-Aug-11 13:16 282 26.7
2020-Aug-11 13:01 357 27.8
2020-Aug-11 12:46 149 27.8
2020-Aug-11 12:30 163 27.2
2020-Aug-11 12:16 154 0 gusting 3 26.1
2020-Aug-11 12:01 112 1 gusting 6 26.1
2020-Aug-11 11:46 190 0 gusting 4 26.7
2020-Aug-11 11:30 059 0 gusting 6 26.7
2020-Aug-11 11:15 062 26.7
2020-Aug-11 11:00 108 26.1
2020-Aug-11 10:45 084 25.6
2020-Aug-11 10:30 044 1 gusting 6 25.6
2020-Aug-11 10:16 077 1 gusting 7 25.0
2020-Aug-11 10:00 074 24.4
2020-Aug-11 09:45 103 1 gusting 6 23.3
2020-Aug-11 09:31 076 23.3
2020-Aug-11 09:15 138 22.8
2020-Aug-11 09:00 046 22.2
2020-Aug-11 08:45 137 21.7
2020-Aug-11 08:33 101 21.1
2020-Aug-11 08:16 134 21.1
2020-Aug-11 08:01 050 20.0
2020-Aug-11 07:46 107 19.4
2020-Aug-11 07:31 090 18.9
2020-Aug-11 07:16 121 18.9
2020-Aug-11 07:00 126 18.3
2020-Aug-11 06:46 090 18.3
2020-Aug-11 06:31 124 0 gusting 3 18.3
2020-Aug-11 06:15 101 18.3
2020-Aug-11 06:01 153 18.3
2020-Aug-11 05:45 153 0 gusting 5 17.8
2020-Aug-11 05:30 111 17.8
2020-Aug-11 05:15 095 17.8
2020-Aug-11 05:01 161 0 gusting 7 17.8
2020-Aug-11 04:45 113 3 gusting 6 17.8
2020-Aug-11 04:30 097 17.8
2020-Aug-11 04:15 130 17.8
2020-Aug-11 04:00 107 17.8
2020-Aug-11 03:45 134 17.8
2020-Aug-11 03:30 126 0 gusting 6 18.3
2020-Aug-11 03:15 130 0 gusting 5 18.3
2020-Aug-11 03:00 140 18.3
2020-Aug-11 02:45 132 18.3
2020-Aug-11 02:30 108 0 gusting 6 18.3
2020-Aug-11 02:15 124 18.3
2020-Aug-11 02:00 102 18.3
2020-Aug-11 01:45 093 18.3
2020-Aug-11 01:30 147 18.3
2020-Aug-11 01:15 131 17.8
2020-Aug-11 01:00 170 17.8
2020-Aug-11 00:45 162 17.2
2020-Aug-11 00:30 139 16.7
2020-Aug-11 00:16 172 16.1
2020-Aug-11 00:01 153 15.6
2020-Aug-10 23:47 135 15.6
2020-Aug-10 23:31 266 15.6
2020-Aug-10 23:16 266 15.6
2020-Aug-10 23:02 266 15.6
2020-Aug-10 22:46 266 15.6
2020-Aug-10 22:32 266 16.1
2020-Aug-10 22:16 266 16.1
2020-Aug-10 22:01 266 16.1
2020-Aug-10 21:46 266 16.7
2020-Aug-10 21:30 266 16.7
2020-Aug-10 21:16 266 16.7
2020-Aug-10 21:01 266 17.2
2020-Aug-10 20:46 266 17.2
2020-Aug-10 20:30 266 17.8
2020-Aug-10 20:15 266 18.3
2020-Aug-10 20:00 266 18.3
2020-Aug-10 19:45 266 18.9
2020-Aug-10 19:30 266 19.4
2020-Aug-10 19:16 266 20.0
2020-Aug-10 19:01 266 20.6
2020-Aug-10 18:46 266 21.1
2020-Aug-10 18:30 266 21.7
2020-Aug-10 18:15 266 22.8
2020-Aug-10 18:01 266 23.3
2020-Aug-10 17:45 266 23.9
2020-Aug-10 17:30 266 24.4
2020-Aug-10 17:15 266 25.0
2020-Aug-10 17:01 257 25.0
2020-Aug-10 16:45 257 25.0
2020-Aug-10 16:30 312 25.6
2020-Aug-10 16:15 328 25.6
2020-Aug-10 16:00 357 25.6
2020-Aug-10 15:46 273 25.6
2020-Aug-10 15:31 352 0 gusting 3 25.6
2020-Aug-10 15:15 352 26.1
2020-Aug-10 15:01 321 26.1
2020-Aug-10 14:45 257 26.7
2020-Aug-10 14:30 297 26.7
2020-Aug-10 14:15 271 27.2
2020-Aug-10 14:00 157 27.2
2020-Aug-10 13:45 259 27.2
2020-Aug-10 13:30 248 27.2
2020-Aug-10 13:15 307 27.8
2020-Aug-10 13:00 220 27.8
2020-Aug-10 12:30 224 1 gusting 8 27.8
2020-Aug-10 12:15 280 0 gusting 6 28.3
2020-Aug-10 12:00 347 28.3
2020-Aug-10 11:45 235 27.8
2020-Aug-10 11:30 263 27.8
2020-Aug-10 11:15 244 27.2
2020-Aug-10 11:00 118 27.2
2020-Aug-10 10:45 357 26.7
2020-Aug-10 10:32 303 26.7
2020-Aug-10 10:17 059 26.1
2020-Aug-10 10:01 285 25.6
2020-Aug-10 09:45 276 25.0
2020-Aug-10 09:31 266 25.0
2020-Aug-10 09:16 226 25.0
2020-Aug-10 09:01 186 0 gusting 3 23.9
2020-Aug-10 08:45 209 23.3
2020-Aug-10 08:30 194 22.8
2020-Aug-10 08:15 203 21.7
2020-Aug-10 08:01 224 20.0
2020-Aug-10 07:45 130 18.9
2020-Aug-10 07:30 083 18.3
2020-Aug-10 07:15 097 17.2
2020-Aug-10 07:00 097 16.7
2020-Aug-10 06:45 063 16.1
2020-Aug-10 06:32 063 16.1
2020-Aug-10 06:17 063 15.6
2020-Aug-10 06:02 063 15.0
2020-Aug-10 05:46 063 14.4
2020-Aug-10 05:31 063 14.4
2020-Aug-10 05:16 063 14.4
2020-Aug-10 05:03 014 14.4
2020-Aug-10 04:45 013 14.4
2020-Aug-10 04:31 013 14.4
2020-Aug-10 04:16 013 14.4
2020-Aug-10 04:01 013 14.4
2020-Aug-10 03:46 013 14.4
2020-Aug-10 03:32 014 14.4
2020-Aug-10 03:16 014 15.0
2020-Aug-10 03:00 014 15.0
2020-Aug-10 02:46 014 15.0
2020-Aug-10 02:31 014 15.6
2020-Aug-10 02:16 014 15.6
2020-Aug-10 02:01 014 16.1
2020-Aug-10 01:45 014 16.1
2020-Aug-10 01:31 014 16.1
2020-Aug-10 01:15 283 16.1
2020-Aug-10 01:01 283 16.1
2020-Aug-10 00:45 283 16.7
2020-Aug-10 00:31 283 16.7
2020-Aug-10 00:15 283 16.7
2020-Aug-10 00:01 283 16.7
2020-Aug-09 23:46 283 16.7
2020-Aug-09 23:30 283 16.7
2020-Aug-09 23:15 283 16.7
2020-Aug-09 23:00 290 16.7
2020-Aug-09 22:45 298 16.7
2020-Aug-09 22:30 300 16.7
2020-Aug-09 22:15 300 16.7
2020-Aug-09 22:00 300 16.7
2020-Aug-09 21:45 269 16.7
2020-Aug-09 21:30 238 16.7
2020-Aug-09 21:15 284 16.7
2020-Aug-09 21:00 284 17.2
2020-Aug-09 20:45 284 17.2
2020-Aug-09 20:31 284 17.8
2020-Aug-09 20:15 284
2020-Aug-09 20:01 284 18.3
2020-Aug-09 19:45 284 18.9
2020-Aug-09 19:31 284 18.9
2020-Aug-09 19:15 284 19.4
2020-Aug-09 19:00 284 20.0